When you browse on this site, cookies collect data to enhance your experience and personalize the content and advertising you see.
Visit our Privacy Policy to learn more. By continuing to use the site, you agree to this use of cookies and data.

Previsão horária em Abakumovo

Hoje, 21 Setembro, Segunda-feira

Tempo Temperatura Precipitação Vento Pressão Humidade
00:00 +5°C° 0 mm 3 m/s 748 mmHg 83%
01:00 +5°C° 0 mm 3 m/s 748 mmHg 83%
02:00 +5°C° 0 mm 3 m/s 748 mmHg 82%
03:00 +5°C° 0 mm 3 m/s 749 mmHg 82%
04:00 +5°C° 0 mm 3 m/s 748 mmHg 82%
05:00 +5°C° 0 mm 4 m/s 748 mmHg 83%
06:00 +5°C° 0 mm 4 m/s 748 mmHg 83%
07:00 +6°C° 0 mm 5 m/s 748 mmHg 79%
08:00 +7°C° 0 mm 6 m/s 748 mmHg 76%
09:00 +9°C° 0 mm 7 m/s 748 mmHg 72%
10:00 +9°C° 0 mm 7 m/s 747 mmHg 69%
11:00 +10°C° 0 mm 7 m/s 747 mmHg 66%
12:00 +11°C° 0 mm 8 m/s 747 mmHg 63%
13:00 +12°C° 0 mm 8 m/s 747 mmHg 62%
14:00 +12°C° 0 mm 7 m/s 747 mmHg 61%
15:00 +14°C° 0 mm 7 m/s 747 mmHg 61%
16:00 +13°C° 0 mm 6 m/s 747 mmHg 64%
17:00 +13°C° 0 mm 5 m/s 746 mmHg 68%
18:00 +12°C° 0 mm 5 m/s 746 mmHg 71%
19:00 +12°C° 0 mm 5 m/s 747 mmHg 74%
20:00 +10°C° 0 mm 5 m/s 747 mmHg 76%
21:00 +10°C° 0 mm 5 m/s 747 mmHg 79%
22:00 +10°C° 0 mm 4 m/s 747 mmHg 82%
23:00 +10°C° 0 mm 4 m/s 747 mmHg 86%

Amanhã, 22 Setembro, Terça-feira

Tempo Temperatura Precipitação Vento Pressão Humidade
00:00 +10°C° 0 mm 4 m/s 747 mmHg 89%
01:00 +8°C° 0 mm 4 m/s 747 mmHg 91%
02:00 +8°C° 0 mm 4 m/s 747 mmHg 92%
03:00 +8°C° 0 mm 4 m/s 747 mmHg 93%
04:00 +8°C° 0 mm 4 m/s 747 mmHg 94%
05:00 +8°C° 0 mm 4 m/s 747 mmHg 94%
06:00 +8°C° 0 mm 4 m/s 746 mmHg 95%
07:00 +9°C° 0 mm 5 m/s 747 mmHg 90%
08:00 +11°C° 0 mm 6 m/s 747 mmHg 85%
09:00 +13°C° 0 mm 6 m/s 747 mmHg 80%
10:00 +15°C° 0 mm 7 m/s 747 mmHg 74%
11:00 +16°C° 0 mm 7 m/s 747 mmHg 68%
12:00 +18°C° 0 mm 7 m/s 746 mmHg 61%
13:00 +18°C° 0 mm 7 m/s 746 mmHg 60%
14:00 +20°C° 0 mm 8 m/s 746 mmHg 58%
15:00 +20°C° 0 mm 8 m/s 746 mmHg 56%
16:00 +18°C° 0 mm 7 m/s 746 mmHg 60%
17:00 +17°C° 0 mm 6 m/s 746 mmHg 64%
18:00 +16°C° 0 mm 5 m/s 746 mmHg 68%
19:00 +15°C° 0 mm 5 m/s 746 mmHg 70%
20:00 +14°C° 0 mm 5 m/s 746 mmHg 71%
21:00 +14°C° 0 mm 5 m/s 746 mmHg 73%
22:00 +13°C° 0 mm 5 m/s 746 mmHg 76%
23:00 +13°C° 0 mm 5 m/s 746 mmHg 80%

Depois de amanhã, 23 Setembro, Quarta-feira

Tempo Temperatura Precipitação Vento Pressão Humidade
00:00 +12°C° 0 mm 4 m/s 746 mmHg 83%
01:00 +12°C° 0 mm 4 m/s 746 mmHg 86%
02:00 +11°C° 0 mm 4 m/s 747 mmHg 89%
03:00 +11°C° 0 mm 4 m/s 747 mmHg 92%
04:00 +10°C° 0 mm 3 m/s 747 mmHg 93%
05:00 +10°C° 0 mm 3 m/s 747 mmHg 93%
06:00 +10°C° 0 mm 3 m/s 747 mmHg 94%
07:00 +11°C° 0 mm 3 m/s 747 mmHg 89%
08:00 +13°C° 0 mm 3 m/s 748 mmHg 83%
09:00 +14°C° 0 mm 3 m/s 748 mmHg 78%
10:00 +17°C° 0 mm 3 m/s 748 mmHg 71%
11:00 +18°C° 0 mm 3 m/s 748 mmHg 64%
12:00 +20°C° 0 mm 3 m/s 748 mmHg 57%
13:00 +20°C° 0 mm 3 m/s 748 mmHg 56%
14:00 +21°C° 0 mm 3 m/s 748 mmHg 55%
15:00 +21°C° 0 mm 3 m/s 748 mmHg 54%
16:00 +20°C° 0 mm 2 m/s 748 mmHg 60%
17:00 +19°C° 0 mm 2 m/s 747 mmHg 65%
18:00 +17°C° 0 mm 2 m/s 747 mmHg 70%
19:00 +17°C° 0 mm 2 m/s 747 mmHg 74%
20:00 +16°C° 0 mm 2 m/s 748 mmHg 77%
21:00 +15°C° 0 mm 2 m/s 748 mmHg 80%
22:00 +15°C° 0 mm 2 m/s 748 mmHg 82%
23:00 +14°C° 0 mm 2 m/s 748 mmHg 84%

24 Setembro, Quinta-feira

Tempo Temperatura Precipitação Vento Pressão Humidade
00:00 +14°C° 0 mm 2 m/s 748 mmHg 86%
01:00 +14°C° 0 mm 2 m/s 748 mmHg 86%
02:00 +13°C° 0 mm 2 m/s 748 mmHg 87%
03:00 +13°C° 0 mm 2 m/s 748 mmHg 87%
04:00 +13°C° 0 mm 1 m/s 748 mmHg 86%
05:00 +12°C° 0 mm 1 m/s 748 mmHg 86%
06:00 +12°C° 0 mm 1 m/s 748 mmHg 86%
07:00 +14°C° 0 mm 1 m/s 749 mmHg 79%
08:00 +15°C° 0 mm 1 m/s 749 mmHg 73%
09:00 +17°C° 0 mm 2 m/s 749 mmHg 66%
10:00 +18°C° 0 mm 2 m/s 749 mmHg 60%
11:00 +20°C° 0 mm 2 m/s 749 mmHg 55%
12:00 +21°C° 0 mm 2 m/s 749 mmHg 49%
13:00 +23°C° 0 mm 2 m/s 749 mmHg 47%
14:00 +23°C° 0 mm 2 m/s 749 mmHg 45%
15:00 +24°C° 0 mm 1 m/s 749 mmHg 43%
16:00 +22°C° 0 mm 1 m/s 749 mmHg 49%
17:00 +21°C° 0 mm 1 m/s 749 mmHg 54%
18:00 +19°C° 0 mm 1 m/s 749 mmHg 59%
19:00 +18°C° 0 mm 1 m/s 749 mmHg 61%
20:00 +18°C° 0 mm 1 m/s 749 mmHg 63%
21:00 +16°C° 0 mm 1 m/s 749 mmHg 66%
22:00 +15°C° 0 mm 1 m/s 749 mmHg 67%
23:00 +15°C° 0 mm 1 m/s 749 mmHg 69%

25 Setembro, Sexta-feira

Tempo Temperatura Precipitação Vento Pressão Humidade
00:00 +14°C° 0 mm 1 m/s 749 mmHg 70%
01:00 +14°C° 0 mm 1 m/s 749 mmHg 71%
02:00 +14°C° 0 mm 1 m/s 749 mmHg 73%
03:00 +13°C° 0 mm 1 m/s 750 mmHg 74%
04:00 +13°C° 0 mm 1 m/s 750 mmHg 75%
05:00 +13°C° 0 mm 1 m/s 750 mmHg 77%
06:00 +13°C° 0 mm 2 m/s 750 mmHg 78%
07:00 +14°C° 0 mm 2 m/s 750 mmHg 74%
08:00 +15°C° 0 mm 2 m/s 750 mmHg 70%
09:00 +17°C° 0 mm 2 m/s 750 mmHg 66%
10:00 +18°C° 0 mm 2 m/s 750 mmHg 60%
11:00 +20°C° 0 mm 2 m/s 750 mmHg 54%
12:00 +22°C° 0 mm 3 m/s 750 mmHg 48%
13:00 +22°C° 0 mm 3 m/s 750 mmHg 47%
14:00 +22°C° 0 mm 3 m/s 750 mmHg 46%
15:00 +24°C° 0 mm 3 m/s 750 mmHg 45%
16:00 +21°C° 0 mm 3 m/s 750 mmHg 51%
17:00 +20°C° 0 mm 3 m/s 750 mmHg 56%
18:00 +18°C° 0 mm 3 m/s 749 mmHg 62%
19:00 +17°C° 0 mm 3 m/s 749 mmHg 63%
20:00 +17°C° 0 mm 3 m/s 750 mmHg 65%
21:00 +16°C° 0 mm 3 m/s 750 mmHg 66%
22:00 +14°C° 0 mm 3 m/s 750 mmHg 67%
23:00 +14°C° 0 mm 3 m/s 750 mmHg 68%

26 Setembro, Sábado

Tempo Temperatura Precipitação Vento Pressão Humidade
00:00 +14°C° 0 mm 3 m/s 750 mmHg 68%
01:00 +13°C° 0 mm 3 m/s 750 mmHg 69%
02:00 +13°C° 0 mm 3 m/s 750 mmHg 70%
03:00 +13°C° 0 mm 3 m/s 750 mmHg 71%
04:00 +12°C° 0 mm 3 m/s 750 mmHg 72%
05:00 +12°C° 0 mm 3 m/s 750 mmHg 72%
06:00 +12°C° 0 mm 3 m/s 750 mmHg 73%
07:00 +13°C° 0 mm 3 m/s 751 mmHg 68%
08:00 +14°C° 0 mm 4 m/s 751 mmHg 64%
09:00 +17°C° 0 mm 4 m/s 751 mmHg 60%
10:00 +18°C° 0 mm 4 m/s 751 mmHg 55%
11:00 +20°C° 0 mm 4 m/s 751 mmHg 51%
12:00 +21°C° 0 mm 5 m/s 751 mmHg 47%
13:00 +21°C° 0 mm 5 m/s 751 mmHg 45%
14:00 +22°C° 0 mm 5 m/s 751 mmHg 44%
15:00 +22°C° 0 mm 5 m/s 751 mmHg 43%
16:00 +21°C° 0 mm 4 m/s 751 mmHg 49%
17:00 +19°C° 0 mm 4 m/s 751 mmHg 54%
18:00 +18°C° 0 mm 4 m/s 751 mmHg 59%
19:00 +17°C° 0 mm 4 m/s 751 mmHg 61%
20:00 +17°C° 0 mm 4 m/s 752 mmHg 62%
21:00 +15°C° 0 mm 4 m/s 752 mmHg 63%
22:00 +14°C° 0 mm 4 m/s 752 mmHg 63%
23:00 +14°C° 0 mm 4 m/s 752 mmHg 63%
Mostrar mais